Location: *
(43.9905°S, 176.4941°W)
Time: 06:54:02
(UTC+00:00)

ATLAS CENTAUR R/B - Pass Details

Date: 08 December 2019
Orbit: 454 x 694 km, 64.6° (Epoch: 15 January)

Event Time Altitude Azimuth Distance (km) Brightness Sun altitude
Rises 08:23:28 0° 220° (SW) 2,800 7.2 -9.9°
Reaches altitude 10° 08:25:42 10° 226° (SW) 1,936 5.8 -10.1°
Maximum altitude 08:29:55 48° 299° (WNW) 818 2.3 -10.7°
Enters shadow 08:34:09 11° 12° (NNE) 1,956 3.6 -11.2°
